Precipitable_Water
0.20 0.20 0.20 0.20 0.21 0.21 0.21 0.21 0.21 0.22 0.22 0.22 0.22 0.22 0.22 0.22 0.22 0.22 0.22 0.21 0.21 0.21 0.21 0.21 0.21 0.21 0.21 0.21 0.22 0.22 0.22 0.22 0.23 0.23 0.23 0.22 0.23 0.23 0.23 0.23 0.24 0.24 0.25 0.25 0.26 0.26 0.26 0.26 0.26 0.26 0.27 0.27 0.27 0.27 0.28 0.28 0.29 0.29 0.29 0.29 0.28 0.29 0.28 0.27 0.25 0.25 0.26 0.28 0.27 0.27 0.28 0.29 0.28 0.28 0.28 0.28 0.28 0.28 0.28 0.27 0.27 0.26 0.26 0.25 0.25
0.20 0.20 0.20 0.20 0.20 0.19 0.19 0.19 0.19 0.19 0.19 0.19 0.20 0.20 0.20 0.20 0.20 0.19 0.19 0.19 0.18 0.18 0.18 0.18 0.18 0.18 0.18 0.18 0.18 0.18 0.19 0.19 0.19 0.20 0.20 0.20 0.20 0.20 0.20 0.20 0.20 0.21 0.21 0.22 0.23 0.23 0.24 0.24 0.24 0.24 0.25 0.25 0.25 0.25 0.25 0.25 0.25 0.26 0.26 0.26 0.26 0.26 0.27 0.26 0.25 0.24 0.23 0.25 0.25 0.27 0.27 0.28 0.26 0.27 0.26 0.26 0.26 0.26 0.26 0.26 0.26 0.26 0.25 0.25 0.25
0.20 0.19 0.19 0.19 0.18 0.18 0.18 0.18 0.17 0.17 0.17 0.16 0.16 0.16 0.16 0.16 0.16 0.16 0.16 0.16 0.16 0.17 0.17 0.17 0.17 0.17 0.17 0.17 0.17 0.17 0.17 0.17 0.17 0.17 0.18 0.18 0.18 0.18 0.18 0.18 0.18 0.18 0.18 0.18 0.18 0.19 0.19 0.20 0.21 0.22 0.22 0.22 0.22 0.23 0.23 0.23 0.23 0.23 0.23 0.24 0.24 0.24 0.25 0.25 0.23 0.22 0.22 0.23 0.24 0.24 0.25 0.25 0.25 0.25 0.26 0.26 0.26 0.26 0.25 0.25 0.25 0.25 0.25 0.25 0.25
0.19 0.19 0.18 0.17 0.17 0.16 0.16 0.15 0.15 0.14 0.14 0.14 0.14 0.14 0.14 0.14 0.15 0.14 0.14 0.14 0.14 0.14 0.15 0.15 0.15 0.15 0.15 0.15 0.15 0.15 0.16 0.16 0.16 0.16 0.16 0.16 0.16 0.17 0.17 0.17 0.17 0.17 0.17 0.17 0.17 0.17 0.17 0.17 0.17 0.18 0.19 0.19 0.20 0.21 0.21 0.21 0.21 0.21 0.21 0.22 0.22 0.22 0.22 0.22 0.22 0.22 0.21 0.21 0.22 0.22 0.23 0.23 0.24 0.25 0.25 0.25 0.24 0.24 0.24 0.24 0.24 0.24 0.24 0.24 0.24
0.17 0.17 0.16 0.15 0.14 0.14 0.13 0.13 0.12 0.12 0.11 0.11 0.11 0.11 0.11 0.11 0.11 0.11 0.11 0.11 0.12 0.12 0.12 0.12 0.12 0.12 0.12 0.13 0.13 0.13 0.14 0.14 0.14 0.15 0.15 0.15 0.15 0.15 0.15 0.16 0.16 0.16 0.17 0.17 0.17 0.17 0.17 0.17 0.17 0.18 0.17 0.17 0.17 0.18 0.18 0.19 0.19 0.20 0.20 0.21 0.21 0.21 0.21 0.21 0.20 0.20 0.20 0.19 0.19 0.20 0.21 0.21 0.22 0.22 0.22 0.21 0.21 0.21 0.21 0.21 0.21 0.22 0.22 0.22 0.23
0.15 0.14 0.13 0.12 0.11 0.11 0.10 0.10 0.10 0.10 0.10 0.10 0.09 0.09 0.09 0.09 0.09 0.09 0.09 0.09 0.09 0.09 0.09 0.09 0.09 0.10 0.10 0.10 0.11 0.11 0.12 0.12 0.12 0.13 0.13 0.13 0.13 0.13 0.14 0.14 0.15 0.15 0.16 0.16 0.16 0.16 0.17 0.17 0.17 0.18 0.18 0.17 0.17 0.18 0.18 0.18 0.18 0.18 0.18 0.19 0.19 0.20 0.19 0.20 0.19 0.19 0.19 0.18 0.18 0.18 0.19 0.19 0.19 0.19 0.19 0.19 0.18 0.18 0.18 0.18 0.18 0.18 0.18 0.18 0.18
0.12 0.11 0.10 0.10 0.09 0.09 0.09 0.09 0.10 0.09 0.09 0.09 0.09 0.09 0.09 0.09 0.09 0.09 0.09 0.08 0.08 0.08 0.08 0.08 0.08 0.08 0.08 0.08 0.08 0.09 0.09 0.10 0.10 0.11 0.11 0.11 0.11 0.12 0.12 0.13 0.13 0.14 0.14 0.15 0.15 0.15 0.16 0.16 0.16 0.17 0.17 0.17 0.17 0.17 0.17 0.17 0.17 0.17 0.17 0.18 0.18 0.18 0.18 0.18 0.18 0.18 0.18 0.17 0.18 0.18 0.17 0.17 0.17 0.16 0.18 0.18 0.18 0.17 0.17 0.17 0.17 0.18 0.18 0.17 0.17
0.10 0.09 0.09 0.09 0.09 0.09 0.09 0.09 0.09 0.09 0.09 0.09 0.09 0.09 0.09 0.09 0.09 0.09 0.09 0.08 0.08 0.08 0.08 0.08 0.08 0.08 0.07 0.07 0.08 0.08 0.08 0.08 0.08 0.08 0.09 0.09 0.09 0.10 0.11 0.11 0.12 0.12 0.13 0.13 0.14 0.14 0.14 0.14 0.15 0.15 0.15 0.15 0.15 0.15 0.15 0.16 0.16 0.16 0.17 0.17 0.17 0.16 0.16 0.17 0.17 0.17 0.17 0.17 0.17 0.17 0.17 0.17 0.17 0.18 0.18 0.18 0.17 0.17 0.17 0.16 0.15 0.16 0.16 0.17 0.18
0.09 0.09 0.08 0.08 0.08 0.09 0.09 0.09 0.09 0.09 0.09 0.09 0.09 0.09 0.09 0.09 0.08 0.08 0.08 0.08 0.08 0.08 0.08 0.07 0.07 0.07 0.07 0.07 0.07 0.07 0.07 0.07 0.07 0.07 0.07 0.08 0.08 0.09 0.09 0.10 0.10 0.10 0.11 0.11 0.11 0.12 0.12 0.13 0.13 0.14 0.14 0.14 0.15 0.15 0.15 0.16 0.16 0.15 0.16 0.16 0.16 0.15 0.15 0.15 0.15 0.15 0.15 0.15 0.15 0.15 0.15 0.15 0.15 0.15 0.15 0.15 0.15 0.15 0.15 0.15 0.15 0.15 0.15 0.15 0.15
0.08 0.08 0.08 0.08 0.08 0.09 0.09 0.09 0.09 0.09 0.09 0.08 0.08 0.08 0.08 0.08 0.08 0.08 0.08 0.08 0.08 0.08 0.07 0.07 0.07 0.07 0.07 0.07 0.07 0.07 0.07 0.07 0.07 0.07 0.08 0.08 0.09 0.09 0.09 0.08 0.08 0.08 0.09 0.09 0.09 0.11 0.11 0.12 0.12 0.13 0.13 0.13 0.14 0.14 0.14 0.15 0.15 0.15 0.15 0.16 0.15 0.15 0.15 0.15 0.15 0.15 0.14 0.14 0.14 0.14 0.14 0.14 0.14 0.14 0.14 0.14 0.14 0.14 0.14 0.14 0.13 0.13 0.13 0.13 0.13
0.08 0.08 0.07 0.08 0.08 0.08 0.08 0.08 0.08 0.08 0.08 0.08 0.08 0.08 0.08 0.08 0.08 0.08 0.08 0.07 0.07 0.07 0.07 0.06 0.06 0.06 0.06 0.06 0.06 0.06 0.06 0.06 0.07 0.07 0.08 0.09 0.09 0.08 0.08 0.08 0.08 0.08 0.08 0.08 0.08 0.08 0.09 0.09 0.09 0.10 0.10 0.11 0.11 0.12 0.12 0.13 0.13 0.14 0.14 0.15 0.15 0.15 0.14 0.13 0.13 0.14 0.13 0.13 0.13 0.13 0.13 0.13 0.13 0.14 0.14 0.14 0.14 0.14 0.13 0.13 0.13 0.13 0.12 0.12 0.11
0.08 0.07 0.07 0.08 0.08 0.08 0.08 0.08 0.07 0.07 0.08 0.07 0.07 0.07 0.07 0.07 0.07 0.07 0.07 0.07 0.07 0.06 0.06 0.06 0.06 0.06 0.06 0.06 0.06 0.06 0.06 0.06 0.07 0.07 0.08 0.08 0.08 0.08 0.08 0.08 0.08 0.08 0.08 0.08 0.08 0.08 0.08 0.08 0.08 0.08 0.08 0.08 0.08 0.09 0.09 0.10 0.11 0.11 0.12 0.13 0.13 0.14 0.14 0.13 0.12 0.12 0.12 0.12 0.12 0.12 0.12 0.12 0.12 0.12 0.12 0.12 0.12 0.12 0.12 0.12 0.11 0.11 0.10 0.10 0.10
0.07 0.07 0.07 0.07 0.07 0.07 0.07 0.07 0.07 0.07 0.07 0.07 0.07 0.07 0.06 0.06 0.06 0.06 0.06 0.06 0.06 0.06 0.06 0.06 0.05 0.06 0.06 0.06 0.06 0.06 0.06 0.06 0.07 0.07 0.08 0.08 0.08 0.08 0.09 0.08 0.08 0.08 0.08 0.07 0.07 0.07 0.07 0.07 0.07 0.07 0.07 0.07 0.07 0.07 0.07 0.07 0.08 0.08 0.09 0.10 0.11 0.11 0.12 0.12 0.12 0.12 0.12 0.11 0.11 0.11 0.11 0.11 0.11 0.11 0.11 0.11 0.12 0.11 0.11 0.10 0.10 0.10 0.09 0.09 0.09
0.07 0.07 0.07 0.07 0.07 0.07 0.07 0.06 0.06 0.06 0.06 0.06 0.06 0.06 0.06 0.06 0.06 0.06 0.06 0.06 0.05 0.05 0.05 0.05 0.05 0.05 0.05 0.05 0.05 0.05 0.05 0.06 0.06 0.07 0.07 0.08 0.08 0.08 0.08 0.08 0.08 0.07 0.07 0.07 0.07 0.07 0.06 0.06 0.06 0.06 0.06 0.07 0.07 0.07 0.07 0.07 0.07 0.07 0.07 0.08 0.09 0.09 0.10 0.10 0.10 0.10 0.10 0.09 0.09 0.08 0.09 0.09 0.09 0.09 0.09 0.09 0.09 0.08 0.08 0.08 0.09 0.09 0.09 0.09 0.09
0.06 0.07 0.06 0.07 0.06 0.06 0.06 0.06 0.06 0.06 0.05 0.05 0.05 0.05 0.05 0.05 0.05 0.05 0.06 0.05 0.05 0.05 0.05 0.05 0.05 0.05 0.05 0.05 0.05 0.05 0.05 0.05 0.06 0.07 0.07 0.07 0.07 0.08 0.08 0.07 0.07 0.07 0.07 0.06 0.06 0.06 0.07 0.07 0.06 0.06 0.06 0.06 0.06 0.06 0.07 0.07 0.07 0.07 0.07 0.07 0.07 0.08 0.08 0.08 0.08 0.08 0.08 0.08 0.08 0.08 0.08 0.08 0.08 0.08 0.08 0.08 0.08 0.09 0.09 0.09 0.08 0.08 0.09 0.09 0.09
0.06 0.06 0.06 0.06 0.06 0.06 0.06 0.05 0.05 0.05 0.05 0.05 0.05 0.05 0.05 0.05 0.05 0.05 0.05 0.05 0.05 0.05 0.05 0.05 0.05 0.05 0.05 0.05 0.05 0.05 0.05 0.05 0.06 0.06 0.06 0.07 0.07 0.07 0.07 0.06 0.06 0.06 0.06 0.07 0.07 0.07 0.06 0.06 0.06 0.06 0.06 0.06 0.06 0.06 0.06 0.07 0.07 0.07 0.07 0.07 0.07 0.07 0.08 0.08 0.09 0.09 0.09 0.09 0.09 0.08 0.08 0.09 0.09 0.10 0.10 0.10 0.10 0.09 0.09 0.09 0.08 0.07 0.07 0.07 0.07
0.06 0.06 0.06 0.06 0.05 0.05 0.05 0.05 0.05 0.05 0.05 0.05 0.04 0.05 0.05 0.05 0.05 0.05 0.05 0.05 0.05 0.05 0.05 0.05 0.05 0.05 0.05 0.05 0.05 0.04 0.05 0.05 0.05 0.06 0.06 0.06 0.07 0.06 0.06 0.06 0.06 0.06 0.06 0.06 0.06 0.06 0.07 0.07 0.06 0.06 0.06 0.06 0.06 0.06 0.07 0.07 0.07 0.07 0.07 0.07 0.08 0.08 0.08 0.08 0.08 0.08 0.08 0.08 0.09 0.09 0.09 0.09 0.09 0.09 0.09 0.09 0.09 0.09 0.08 0.06 0.06 0.06 0.06 0.06 0.06
0.05 0.05 0.05 0.05 0.05 0.05 0.05 0.05 0.05 0.05 0.04 0.04 0.04 0.04 0.05 0.05 0.05 0.05 0.05 0.04 0.04 0.04 0.04 0.04 0.04 0.04 0.04 0.04 0.04 0.04 0.04 0.05 0.05 0.05 0.06 0.06 0.06 0.06 0.06 0.06 0.06 0.06 0.06 0.06 0.06 0.06 0.06 0.06 0.06 0.06 0.06 0.06 0.06 0.06 0.07 0.07 0.07 0.07 0.07 0.07 0.07 0.07 0.07 0.07 0.07 0.07 0.08 0.08 0.07 0.07 0.07 0.07 0.06 0.06 0.06 0.07 0.07 0.07 0.06 0.05 0.05 0.06 0.05 0.05 0.05
0.05 0.05 0.05 0.05 0.05 0.05 0.05 0.05 0.04 0.04 0.04 0.04 0.04 0.04 0.04 0.04 0.04 0.05 0.04 0.04 0.04 0.04 0.04 0.04 0.04 0.04 0.04 0.04 0.04 0.04 0.04 0.04 0.04 0.05 0.06 0.06 0.06 0.06 0.06 0.06 0.06 0.06 0.06 0.06 0.06 0.06 0.05 0.06 0.06 0.06 0.06 0.06 0.06 0.07 0.07 0.08 0.08 0.07 0.07 0.07 0.06 0.06 0.06 0.07 0.07 0.07 0.06 0.06 0.06 0.06 0.05 0.05 0.05 0.05 0.05 0.05 0.05 0.05 0.05 0.05 0.05 0.05 0.05 0.05 0.05
0.05 0.05 0.05 0.05 0.05 0.05 0.05 0.04 0.04 0.04 0.04 0.04 0.04 0.04 0.04 0.04 0.04 0.04 0.04 0.04 0.04 0.04 0.04 0.04 0.04 0.04 0.04 0.04 0.04 0.04 0.04 0.04 0.04 0.05 0.05 0.06 0.06 0.06 0.06 0.06 0.05 0.05 0.05 0.05 0.05 0.05 0.06 0.06 0.06 0.06 0.06 0.06 0.06 0.07 0.07 0.08 0.07 0.07 0.07 0.06 0.06 0.06 0.06 0.06 0.06 0.06 0.06 0.05 0.05 0.05 0.05 0.05 0.05 0.05 0.05 0.05 0.05 0.05 0.05 0.05 0.05 0.05 0.05 0.05 0.05
0.05 0.05 0.05 0.05 0.04 0.04 0.04 0.04 0.04 0.04 0.04 0.04 0.04 0.04 0.04 0.04 0.04 0.04 0.04 0.04 0.04 0.04 0.04 0.04 0.04 0.04 0.04 0.04 0.04 0.04 0.04 0.04 0.04 0.04 0.05 0.05 0.05 0.06 0.05 0.05 0.05 0.05 0.05 0.05 0.05 0.05 0.05 0.06 0.06 0.06 0.06 0.06 0.06 0.06 0.07 0.07 0.07 0.07 0.07 0.06 0.06 0.06 0.06 0.06 0.05 0.05 0.05 0.05 0.05 0.05 0.05 0.05 0.05 0.05 0.05 0.05 0.05 0.05 0.05 0.05 0.05 0.06 0.05 0.05 0.05
0.04 0.04 0.04 0.04 0.04 0.04 0.04 0.04 0.04 0.04 0.04 0.04 0.04 0.04 0.04 0.04 0.04 0.04 0.04 0.04 0.03 0.03 0.03 0.04 0.04 0.04 0.04 0.04 0.04 0.04 0.04 0.04 0.04 0.04 0.04 0.05 0.05 0.05 0.05 0.05 0.05 0.05 0.05 0.05 0.05 0.05 0.05 0.05 0.05 0.06 0.06 0.06 0.06 0.06 0.07 0.06 0.06 0.06 0.07 0.07 0.06 0.06 0.06 0.05 0.05 0.05 0.05 0.04 0.04 0.04 0.04 0.04 0.04 0.04 0.04 0.04 0.05 0.05 0.05 0.05 0.06 0.06 0.06 0.06 0.06
0.04 0.04 0.04 0.04 0.04 0.04 0.03 0.03 0.03 0.03 0.04 0.04 0.04 0.04 0.04 0.03 0.03 0.03 0.03 0.03 0.03 0.03 0.03 0.03 0.03 0.03 0.03 0.04 0.04 0.04 0.04 0.04 0.04 0.04 0.04 0.04 0.05 0.04 0.05 0.05 0.05 0.05 0.05 0.05 0.05 0.05 0.05 0.05 0.05 0.06 0.06 0.06 0.06 0.07 0.06 0.06 0.06 0.06 0.06 0.06 0.06 0.05 0.05 0.05 0.05 0.04 0.04 0.04 0.04 0.04 0.04 0.04 0.04 0.04 0.04 0.04 0.05 0.05 0.05 0.05 0.05 0.05 0.05 0.06 0.06
0.04 0.04 0.04 0.03 0.03 0.03 0.03 0.03 0.03 0.03 0.03 0.03 0.03 0.03 0.03 0.03 0.03 0.03 0.03 0.03 0.03 0.03 0.03 0.03 0.03 0.03 0.03 0.03 0.03 0.03 0.04 0.04 0.04 0.04 0.04 0.04 0.04 0.05 0.05 0.05 0.05 0.05 0.05 0.05 0.05 0.05 0.05 0.05 0.05 0.05 0.06 0.06 0.06 0.06 0.05 0.05 0.05 0.05 0.05 0.05 0.05 0.05 0.05 0.04 0.04 0.04 0.04 0.04 0.04 0.04 0.04 0.04 0.04 0.04 0.04 0.04 0.05 0.05 0.05 0.05 0.05 0.05 0.05 0.05 0.06
0.03 0.03 0.03 0.03 0.03 0.03 0.03 0.03 0.03 0.03 0.03 0.03 0.03 0.03 0.03 0.03 0.03 0.03 0.03 0.03 0.03 0.03 0.03 0.03 0.03 0.03 0.03 0.03 0.03 0.03 0.03 0.04 0.04 0.04 0.04 0.04 0.04 0.04 0.04 0.04 0.05 0.05 0.05 0.05 0.05 0.05 0.05 0.05 0.05 0.05 0.05 0.05 0.05 0.05 0.05 0.05 0.05 0.05 0.05 0.05 0.05 0.04 0.04 0.04 0.04 0.04 0.04 0.04 0.04 0.04 0.04 0.04 0.04 0.04 0.04 0.04 0.05 0.05 0.05 0.05 0.05 0.05 0.05 0.05 0.06
0.03 0.03 0.03 0.03 0.03 0.03 0.03 0.03 0.03 0.03 0.03 0.03 0.03 0.03 0.03 0.03 0.03 0.03 0.03 0.03 0.03 0.03 0.03 0.03 0.03 0.03 0.03 0.03 0.03 0.03 0.03 0.04 0.04 0.04 0.04 0.04 0.04 0.04 0.04 0.04 0.04 0.04 0.04 0.05 0.05 0.05 0.05 0.05 0.05 0.05 0.05 0.05 0.05 0.04 0.04 0.04 0.04 0.05 0.04 0.04 0.04 0.04 0.04 0.04 0.04 0.04 0.04 0.04 0.04 0.04 0.04 0.04 0.04 0.04 0.04 0.04 0.04 0.04 0.05 0.05 0.05 0.05 0.05 0.05 0.05
0.03 0.03 0.03 0.03 0.03 0.03 0.03 0.03 0.03 0.03 0.03 0.03 0.03 0.03 0.03 0.03 0.03 0.03 0.03 0.03 0.03 0.03 0.03 0.03 0.03 0.03 0.03 0.03 0.03 0.03 0.03 0.03 0.03 0.04 0.04 0.04 0.04 0.04 0.04 0.04 0.04 0.04 0.04 0.04 0.04 0.05 0.05 0.05 0.05 0.05 0.05 0.05 0.05 0.04 0.04 0.04 0.04 0.04 0.04 0.04 0.04 0.04 0.04 0.04 0.04 0.04 0.04 0.04 0.04 0.04 0.04 0.04 0.04 0.04 0.04 0.04 0.04 0.04 0.05 0.05 0.05 0.05 0.05 0.05 0.05
0.03 0.02 0.02 0.02 0.02 0.02 0.02 0.03 0.03 0.03 0.03 0.03 0.03 0.02 0.02 0.03 0.03 0.03 0.03 0.03 0.03 0.03 0.03 0.03 0.03 0.03 0.03 0.03 0.03 0.03 0.03 0.03 0.03 0.03 0.03 0.04 0.04 0.04 0.04 0.04 0.04 0.04 0.04 0.04 0.04 0.05 0.05 0.05 0.05 0.05 0.05 0.04 0.04 0.04 0.04 0.04 0.04 0.04 0.04 0.04 0.04 0.04 0.04 0.04 0.04 0.04 0.04 0.04 0.04 0.04 0.04 0.04 0.04 0.04 0.04 0.04 0.04 0.04 0.05 0.05 0.05 0.05 0.05 0.05 0.04
0.02 0.02 0.02 0.02 0.02 0.02 0.02 0.02 0.02 0.02 0.02 0.02 0.02 0.02 0.02 0.02 0.02 0.03 0.03 0.03 0.03 0.02 0.02 0.02 0.03 0.03 0.03 0.03 0.03 0.03 0.03 0.03 0.03 0.03 0.03 0.03 0.03 0.03 0.03 0.04 0.04 0.04 0.04 0.04 0.04 0.05 0.04 0.04 0.04 0.04 0.04 0.04 0.04 0.04 0.04 0.04 0.04 0.04 0.04 0.04 0.04 0.04 0.04 0.04 0.04 0.04 0.04 0.04 0.04 0.04 0.04 0.04 0.04 0.04 0.04 0.04 0.04 0.04 0.05 0.05 0.05 0.05 0.05 0.05 0.04
0.02 0.02 0.02 0.02 0.02 0.02 0.02 0.02 0.02 0.02 0.02 0.02 0.02 0.02 0.02 0.02 0.02 0.02 0.02 0.03 0.03 0.03 0.03 0.02 0.03 0.03 0.03 0.03 0.03 0.03 0.03 0.03 0.03 0.03 0.03 0.03 0.03 0.03 0.03 0.04 0.04 0.04 0.04 0.04 0.04 0.04 0.04 0.04 0.04 0.04 0.04 0.04 0.04 0.04 0.04 0.04 0.04 0.04 0.04 0.04 0.04 0.04 0.04 0.04 0.04 0.04 0.04 0.04 0.04 0.04 0.04 0.04 0.04 0.04 0.04 0.04 0.04 0.04 0.05 0.05 0.04 0.05 0.04 0.04 0.04
0.02 0.02 0.02 0.02 0.02 0.02 0.02 0.02 0.02 0.02 0.02 0.02 0.02 0.02 0.02 0.02 0.02 0.02 0.02 0.02 0.02 0.02 0.03 0.03 0.03 0.03 0.03 0.02 0.03 0.03 0.03 0.03 0.03 0.03 0.03 0.03 0.03 0.03 0.03 0.03 0.04 0.04 0.04 0.04 0.04 0.04 0.04 0.03 0.03 0.03 0.03 0.03 0.03 0.03 0.04 0.04 0.04 0.04 0.04 0.04 0.04 0.04 0.04 0.04 0.04 0.04 0.04 0.04 0.04 0.04 0.04 0.04 0.04 0.04 0.04 0.04 0.04 0.04 0.04 0.04 0.05 0.05 0.05 0.05 0.04
0.02 0.02 0.02 0.02 0.02 0.02 0.02 0.02 0.02 0.02 0.02 0.02 0.02 0.02 0.02 0.02 0.02 0.02 0.02 0.02 0.02 0.02 0.02 0.02 0.02 0.03 0.03 0.03 0.03 0.03 0.03 0.03 0.03 0.03 0.03 0.03 0.03 0.03 0.03 0.03 0.04 0.04 0.04 0.04 0.03 0.03 0.03 0.03 0.03 0.03 0.03 0.03 0.03 0.03 0.04 0.04 0.04 0.04 0.04 0.04 0.04 0.04 0.04 0.04 0.04 0.04 0.04 0.04 0.03 0.03 0.04 0.04 0.04 0.04 0.04 0.04 0.04 0.04 0.04 0.04 0.04 0.04 0.04 0.05 0.05
0.02 0.02 0.02 0.02 0.02 0.02 0.02 0.02 0.02 0.02 0.02 0.02 0.02 0.02 0.02 0.02 0.02 0.02 0.02 0.02 0.02 0.02 0.02 0.02 0.02 0.02 0.03 0.03 0.03 0.03 0.03 0.03 0.03 0.03 0.03 0.03 0.03 0.03 0.03 0.03 0.04 0.04 0.04 0.03 0.03 0.03 0.03 0.03 0.03 0.03 0.03 0.03 0.03 0.03 0.03 0.03 0.03 0.03 0.03 0.03 0.03 0.04 0.04 0.04 0.04 0.04 0.04 0.04 0.04 0.03 0.04 0.04 0.04 0.04 0.04 0.04 0.04 0.04 0.04 0.04 0.04 0.04 0.05 0.05 0.05
0.02 0.02 0.02 0.02 0.02 0.02 0.02 0.02 0.02 0.02 0.02 0.02 0.02 0.02 0.02 0.02 0.02 0.02 0.02 0.02 0.02 0.02 0.02 0.02 0.02 0.02 0.03 0.03 0.03 0.03 0.03 0.03 0.03 0.03 0.03 0.03 0.03 0.03 0.03 0.03 0.03 0.03 0.03 0.03 0.03 0.03 0.03 0.03 0.03 0.03 0.03 0.03 0.03 0.03 0.03 0.03 0.03 0.03 0.03 0.03 0.03 0.04 0.04 0.04 0.04 0.03 0.03 0.03 0.03 0.04 0.04 0.04 0.04 0.04 0.04 0.04 0.04 0.04 0.04 0.04 0.04 0.04 0.05 0.05 0.05
0.02 0.02 0.02 0.02 0.02 0.02 0.02 0.02 0.02 0.02 0.02 0.02 0.02 0.02 0.02 0.02 0.02 0.02 0.02 0.02 0.02 0.02 0.02 0.02 0.02 0.02 0.03 0.03 0.03 0.03 0.03 0.03 0.03 0.03 0.03 0.03 0.03 0.03 0.03 0.03 0.03 0.03 0.03 0.03 0.03 0.03 0.03 0.03 0.03 0.03 0.03 0.03 0.03 0.03 0.03 0.03 0.03 0.03 0.03 0.03 0.03 0.03 0.03 0.03 0.03 0.03 0.03 0.04 0.04 0.04 0.04 0.04 0.04 0.04 0.04 0.04 0.04 0.04 0.04 0.04 0.04 0.05 0.05 0.05 0.05
0.02 0.02 0.02 0.02 0.02 0.02 0.02 0.02 0.02 0.02 0.02 0.02 0.02 0.02 0.02 0.02 0.02 0.02 0.02 0.02 0.02 0.02 0.02 0.02 0.02 0.02 0.02 0.02 0.02 0.03 0.03 0.03 0.03 0.03 0.03 0.03 0.03 0.03 0.03 0.03 0.03 0.03 0.03 0.03 0.03 0.03 0.03 0.03 0.03 0.03 0.03 0.03 0.03 0.03 0.03 0.03 0.03 0.03 0.03 0.03 0.03 0.03 0.03 0.03 0.03 0.03 0.04 0.04 0.04 0.04 0.04 0.04 0.04 0.04 0.04 0.04 0.04 0.04 0.04 0.04 0.05 0.05 0.05 0.05 0.05
0.02 0.02 0.02 0.02 0.02 0.02 0.02 0.02 0.02 0.02 0.02 0.02 0.02 0.02 0.02 0.02 0.02 0.02 0.02 0.02 0.02 0.02 0.02 0.02 0.02 0.02 0.02 0.02 0.02 0.02 0.03 0.03 0.03 0.03 0.03 0.03 0.03 0.03 0.03 0.03 0.03 0.03 0.03 0.03 0.03 0.03 0.03 0.03 0.03 0.03 0.03 0.03 0.03 0.03 0.03 0.03 0.03 0.03 0.03 0.03 0.03 0.03 0.03 0.03 0.04 0.04 0.04 0.04 0.04 0.04 0.04 0.04 0.04 0.04 0.04 0.04 0.04 0.04 0.04 0.04 0.05 0.05 0.05 0.05 0.05
0.02 0.02 0.02 0.02 0.02 0.02 0.02 0.02 0.02 0.02 0.02 0.02 0.02 0.02 0.02 0.02 0.02 0.02 0.02 0.02 0.02 0.02 0.02 0.02 0.02 0.02 0.02 0.02 0.02 0.02 0.03 0.03 0.03 0.03 0.03 0.03 0.03 0.03 0.03 0.03 0.03 0.03 0.03 0.03 0.03 0.03 0.03 0.03 0.03 0.03 0.03 0.03 0.03 0.03 0.03 0.03 0.03 0.03 0.03 0.03 0.03 0.03 0.04 0.04 0.04 0.04 0.04 0.04 0.04 0.04 0.04 0.04 0.04 0.04 0.04 0.04 0.04 0.04 0.04 0.04 0.05 0.05 0.05 0.05 0.05
0.02 0.02 0.02 0.02 0.02 0.02 0.02 0.02 0.02 0.02 0.02 0.02 0.02 0.02 0.02 0.02 0.02 0.02 0.02 0.02 0.02 0.02 0.02 0.02 0.02 0.02 0.02 0.02 0.02 0.03 0.03 0.02 0.02 0.02 0.02 0.03 0.03 0.03 0.03 0.03 0.03 0.03 0.03 0.03 0.03 0.03 0.03 0.03 0.03 0.03 0.03 0.03 0.03 0.03 0.03 0.03 0.03 0.03 0.03 0.03 0.03 0.04 0.04 0.04 0.04 0.04 0.04 0.04 0.04 0.04 0.04 0.04 0.04 0.04 0.04 0.04 0.04 0.04 0.04 0.05 0.05 0.05 0.05 0.05 0.05
0.03 0.02 0.02 0.02 0.02 0.02 0.02 0.02 0.02 0.02 0.02 0.02 0.02 0.02 0.02 0.02 0.02 0.02 0.02 0.02 0.02 0.02 0.02 0.02 0.02 0.02 0.02 0.02 0.03 0.03 0.02 0.02 0.02 0.02 0.02 0.03 0.03 0.03 0.03 0.03 0.03 0.03 0.03 0.03 0.03 0.03 0.03 0.03 0.03 0.03 0.03 0.03 0.03 0.03 0.03 0.03 0.03 0.03 0.03 0.04 0.04 0.04 0.04 0.04 0.04 0.04 0.04 0.04 0.04 0.04 0.04 0.04 0.04 0.04 0.04 0.04 0.04 0.04 0.04 0.05 0.05 0.05 0.05 0.05 0.05
0.03 0.02 0.02 0.02 0.02 0.02 0.02 0.02 0.02 0.02 0.02 0.02 0.02 0.02 0.02 0.02 0.02 0.02 0.02 0.02 0.02 0.02 0.02 0.02 0.02 0.03 0.03 0.03 0.03 0.03 0.03 0.03 0.03 0.03 0.03 0.03 0.03 0.03 0.03 0.03 0.03 0.03 0.03 0.03 0.03 0.03 0.03 0.03 0.03 0.03 0.03 0.03 0.03 0.03 0.03 0.03 0.04 0.04 0.04 0.04 0.04 0.04 0.04 0.04 0.04 0.04 0.04 0.04 0.04 0.04 0.04 0.04 0.04 0.04 0.04 0.04 0.04 0.04 0.05 0.05 0.05 0.05 0.05 0.05 0.05
0.03 0.02 0.02 0.02 0.02 0.02 0.02 0.02 0.02 0.02 0.02 0.02 0.02 0.02 0.02 0.02 0.02 0.02 0.02 0.02 0.02 0.02 0.02 0.03 0.03 0.03 0.03 0.03 0.03 0.03 0.03 0.03 0.03 0.03 0.03 0.03 0.03 0.03 0.03 0.03 0.03 0.03 0.03 0.03 0.03 0.03 0.03 0.03 0.03 0.03 0.03 0.03 0.03 0.04 0.04 0.04 0.04 0.04 0.04 0.04 0.04 0.04 0.04 0.04 0.04 0.04 0.04 0.04 0.04 0.04 0.04 0.04 0.04 0.04 0.04 0.04 0.04 0.04 0.05 0.05 0.05 0.05 0.05 0.05 0.05
0.03 0.03 0.03 0.03 0.03 0.03 0.03 0.03 0.03 0.03 0.03 0.03 0.03 0.03 0.03 0.03 0.03 0.03 0.03 0.03 0.03 0.03 0.03 0.03 0.03 0.03 0.03 0.03 0.03 0.03 0.03 0.03 0.03 0.03 0.03 0.03 0.03 0.03 0.03 0.03 0.03 0.03 0.03 0.03 0.03 0.03 0.03 0.03 0.03 0.04 0.04 0.04 0.04 0.04 0.04 0.04 0.04 0.04 0.04 0.04 0.04 0.04 0.04 0.04 0.04 0.04 0.04 0.04 0.04 0.04 0.04 0.04 0.04 0.04 0.04 0.04 0.04 0.05 0.05 0.05 0.05 0.05 0.05 0.05 0.05
0.03 0.03 0.03 0.03 0.03 0.03 0.03 0.03 0.03 0.03 0.03 0.03 0.03 0.03 0.03 0.03 0.03 0.03 0.03 0.03 0.03 0.03 0.03 0.03 0.03 0.03 0.03 0.03 0.03 0.03 0.03 0.03 0.03 0.03 0.03 0.03 0.03 0.03 0.03 0.03 0.03 0.03 0.04 0.04 0.04 0.04 0.04 0.04 0.04 0.04 0.04 0.04 0.04 0.04 0.04 0.04 0.04 0.04 0.04 0.04 0.04 0.04 0.04 0.04 0.04 0.04 0.04 0.04 0.04 0.04 0.04 0.04 0.04 0.04 0.04 0.04 0.05 0.04 0.04 0.05 0.05 0.05 0.05 0.05 0.05
0.03 0.03 0.03 0.03 0.03 0.03 0.03 0.03 0.03 0.03 0.03 0.03 0.03 0.03 0.03 0.03 0.03 0.03 0.03 0.03 0.03 0.03 0.03 0.03 0.03 0.03 0.03 0.03 0.03 0.03 0.03 0.03 0.03 0.03 0.03 0.03 0.03 0.03 0.03 0.04 0.04 0.04 0.04 0.04 0.04 0.04 0.04 0.04 0.04 0.04 0.04 0.04 0.04 0.04 0.04 0.04 0.04 0.04 0.04 0.04 0.04 0.04 0.04 0.04 0.04 0.04 0.04 0.04 0.04 0.04 0.04 0.04 0.04 0.04 0.04 0.04 0.04 0.04 0.04 0.04 0.05 0.05 0.05 0.05 0.05
0.03 0.03 0.03 0.03 0.03 0.03 0.03 0.03 0.03 0.03 0.03 0.03 0.03 0.03 0.03 0.03 0.03 0.03 0.03 0.03 0.03 0.03 0.03 0.03 0.03 0.03 0.03 0.03 0.03 0.03 0.03 0.03 0.03 0.03 0.03 0.03 0.04 0.04 0.04 0.04 0.04 0.04 0.04 0.04 0.04 0.04 0.04 0.04 0.04 0.04 0.04 0.04 0.04 0.04 0.04 0.04 0.04 0.04 0.04 0.04 0.04 0.04 0.04 0.05 0.05 0.05 0.05 0.04 0.04 0.04 0.04 0.04 0.04 0.04 0.04 0.04 0.04 0.04 0.04 0.05 0.05 0.05 0.05 0.05 0.05
0.03 0.03 0.03 0.03 0.03 0.03 0.03 0.03 0.03 0.03 0.03 0.03 0.03 0.03 0.03 0.03 0.03 0.03 0.03 0.03 0.03 0.03 0.03 0.03 0.03 0.03 0.03 0.03 0.03 0.03 0.03 0.03 0.03 0.03 0.03 0.04 0.04 0.04 0.04 0.04 0.04 0.04 0.04 0.04 0.04 0.04 0.04 0.04 0.04 0.04 0.04 0.04 0.04 0.04 0.04 0.05 0.05 0.05 0.05 0.05 0.05 0.05 0.05 0.05 0.05 0.05 0.05 0.05 0.05 0.05 0.05 0.04 0.04 0.04 0.04 0.04 0.04 0.04 0.04 0.04 0.05 0.05 0.05 0.05 0.05
0.03 0.03 0.03 0.03 0.03 0.03 0.03 0.03 0.03 0.03 0.03 0.03 0.03 0.03 0.03 0.03 0.03 0.03 0.03 0.03 0.03 0.03 0.03 0.03 0.03 0.03 0.03 0.03 0.03 0.03 0.04 0.04 0.04 0.04 0.04 0.04 0.04 0.04 0.04 0.04 0.04 0.04 0.04 0.04 0.04 0.04 0.04 0.04 0.04 0.04 0.04 0.04 0.04 0.04 0.05 0.05 0.05 0.05 0.05 0.05 0.05 0.05 0.05 0.05 0.05 0.05 0.05 0.05 0.05 0.05 0.05 0.05 0.05 0.05 0.05 0.05 0.05 0.05 0.04 0.04 0.05 0.05 0.05 0.05 0.05
0.03 0.03 0.03 0.03 0.03 0.03 0.03 0.03 0.03 0.03 0.03 0.03 0.03 0.03 0.03 0.03 0.03 0.03 0.03 0.03 0.03 0.03 0.03 0.03 0.03 0.04 0.04 0.04 0.04 0.04 0.04 0.04 0.04 0.04 0.04 0.04 0.04 0.04 0.04 0.04 0.04 0.04 0.04 0.04 0.04 0.04 0.04 0.04 0.04 0.04 0.04 0.05 0.05 0.05 0.05 0.05 0.05 0.05 0.05 0.05 0.05 0.05 0.05 0.05 0.05 0.05 0.05 0.05 0.05 0.05 0.05 0.05 0.05 0.05 0.05 0.05 0.05 0.05 0.05 0.05 0.05 0.05 0.05 0.05 0.05
0.04 0.04 0.04 0.03 0.03 0.03 0.03 0.03 0.03 0.03 0.03 0.03 0.03 0.03 0.03 0.03 0.03 0.03 0.04 0.04 0.04 0.04 0.04 0.04 0.04 0.04 0.04 0.04 0.04 0.04 0.04 0.04 0.04 0.04 0.04 0.04 0.04 0.04 0.04 0.04 0.04 0.04 0.04 0.04 0.04 0.04 0.04 0.05 0.05 0.05 0.05 0.05 0.05 0.05 0.05 0.05 0.05 0.05 0.05 0.05 0.05 0.05 0.05 0.05 0.05 0.05 0.05 0.05 0.05 0.05 0.05 0.05 0.05 0.05 0.05 0.05 0.05 0.05 0.05 0.05 0.05 0.05 0.05 0.05 0.05
0.04 0.04 0.04 0.04 0.04 0.04 0.04 0.04 0.04 0.04 0.04 0.04 0.04 0.04 0.04 0.04 0.04 0.04 0.04 0.04 0.04 0.04 0.04 0.04 0.04 0.04 0.04 0.04 0.04 0.04 0.04 0.04 0.04 0.04 0.04 0.04 0.04 0.04 0.04 0.04 0.04 0.04 0.04 0.04 0.04 0.05 0.05 0.05 0.05 0.05 0.05 0.05 0.05 0.05 0.05 0.05 0.05 0.05 0.05 0.05 0.05 0.05 0.05 0.05 0.05 0.05 0.05 0.05 0.05 0.05 0.05 0.05 0.05 0.05 0.05 0.05 0.05 0.05 0.05 0.05 0.05 0.05 0.05 0.05 0.05
Wind_Speed
36 37 37 38 38 39 40 40 41 41 42 42 43 43 44 44 44 45 45 46 46 46 47 47 48 48 49 49 50 51 51 52 53 53 54 55 56 57 58 59 59 60 61 61 62 62 62 62 62 62 62 62 63 63 63 63 63 64 64 64 64 64 65 65 66 67 68 67 66 67 66 66 66 66 66 67 67 67 68 68 68 69 69 69 70
37 37 38 38 39 40 41 42 42 43 43 44 44 44 45 45 46 46 46 47 47 48 48 49 49 50 50 50 51 52 52 53 53 54 54 55 56 57 58 59 60 61 62 62 63 63 63 64 64 64 63 64 64 64 64 64 64 64 65 65 65 65 65 65 66 67 68 68 67 67 67 66 66 67 66 66 67 67 68 68 69 69 69 69 70
38 38 39 40 40 41 42 42 43 43 44 44 45 46 46 46 47 47 48 48 49 49 50 50 51 51 52 52 53 53 54 54 55 55 56 56 57 58 58 59 60 61 62 62 63 63 64 64 64 64 64 65 65 64 64 65 65 65 65 65 65 66 66 66 66 67 68 68 68 67 67 67 67 67 67 67 67 68 68 68 69 69 69 70 70
39 40 41 41 42 42 43 43 44 45 45 46 46 47 47 48 48 49 50 50 51 51 52 52 53 53 54 54 55 55 56 56 57 57 58 58 59 59 60 60 61 62 62 63 63 64 64 65 65 65 65 66 66 66 66 66 66 66 67 67 67 67 67 67 67 68 68 69 69 68 68 68 68 68 68 68 68 68 69 69 69 70 70 71 71
41 42 42 43 44 44 45 45 46 46 47 47 47 48 48 49 49 50 51 52 52 53 53 54 55 55 56 56 57 57 58 58 59 59 60 60 61 61 62 62 63 63 64 64 64 65 65 66 66 66 66 67 67 67 67 67 67 68 68 68 68 69 69 69 69 69 69 70 71 70 70 70 70 69 69 70 70 70 70 71 71 71 72 72 72
43 44 44 45 46 46 46 47 47 47 47 48 48 49 49 50 50 51 52 53 53 54 55 56 56 57 58 58 59 60 60 60 61 61 62 62 63 63 64 64 65 65 65 66 66 66 66 66 67 67 67 67 68 68 68 68 68 69 69 69 69 69 70 70 70 70 70 71 72 72 72 71 71 71 71 71 71 72 72 72 72 72 72 73 73
45 45 46 47 47 48 48 48 48 48 48 49 49 50 50 51 52 53 53 54 55 56 57 58 58 59 60 60 61 62 62 63 63 64 64 64 65 65 66 66 66 67 67 67 67 67 67 68 68 68 68 68 68 69 69 69 69 69 70 70 70 70 70 70 70 70 70 70 71 71 72 71 71 71 70 70 70 71 71 71 72 72 71 72 72
46 46 47 48 48 48 48 48 48 49 49 50 51 51 52 53 54 55 56 56 57 58 59 60 60 61 61 62 63 63 64 64 65 65 66 66 66 67 67 67 68 68 68 68 68 69 69 69 69 69 69 69 69 69 69 69 70 70 70 70 70 71 71 71 71 70 70 70 70 70 70 71 70 70 69 69 69 69 69 69 70 71 71 71 71
47 47 48 48 49 48 48 49 49 50 51 52 53 54 55 56 57 57 58 59 60 60 61 62 62 63 63 63 64 64 65 65 66 66 67 67 67 67 68 68 68 69 69 69 69 69 69 69 69 69 69 69 69 69 69 69 69 70 70 70 70 71 71 71 70 70 71 71 71 71 70 71 70 70 70 70 70 70 70 71 72 73 73 73 73
48 48 49 49 49 49 49 50 51 52 53 54 55 56 57 58 59 60 61 61 62 62 63 63 64 64 64 65 65 65 66 66 67 67 67 67 67 67 68 68 69 69 69 69 69 68 68 68 69 69 69 69 69 69 69 69 69 69 69 69 69 69 69 69 69 69 70 70 70 70 70 71 71 71 71 71 71 71 72 72 73 73 74 75 75
49 49 50 50 50 51 51 52 53 54 55 56 58 58 59 60 61 62 62 63 64 64 65 65 65 65 65 66 66 66 66 66 67 68 68 68 68 68 68 69 68 68 68 68 68 68 69 69 69 70 70 70 70 70 71 70 70 70 70 69 69 68 68 68 68 69 69 69 70 70 70 70 70 70 70 71 71 71 71 72 72 73 73 74 74
50 51 51 51 52 53 54 55 56 57 58 59 60 60 61 62 62 63 64 64 65 65 66 66 66 66 66 66 66 66 66 66 67 67 68 68 68 67 67 68 68 68 68 68 68 69 69 69 70 70 70 70 71 71 71 72 72 71 71 71 70 70 69 69 69 69 69 69 69 69 69 69 70 70 70 70 71 71 72 72 72 73 73 74 74
52 53 53 53 54 55 56 57 58 58 59 60 61 62 62 63 64 64 65 65 65 66 66 65 65 65 65 65 66 66 66 66 66 67 67 67 67 67 66 67 67 67 67 68 68 68 69 69 69 69 68 69 69 69 70 70 71 71 71 71 71 70 70 70 69 69 69 69 69 69 70 69 70 70 71 70 71 71 72 72 73 73 74 74 75
54 54 54 55 56 56 57 58 59 60 61 62 62 63 63 64 64 65 65 65 65 65 65 65 65 64 64 65 65 65 65 65 66 66 65 65 65 65 65 66 66 66 67 67 67 67 67 67 67 67 67 66 67 67 67 68 68 68 69 69 69 69 69 69 69 68 68 68 68 69 69 68 69 69 69 69 70 70 71 72 72 73 73 74 75
55 55 55 56 57 58 59 60 60 61 62 62 63 63 64 64 64 64 64 64 64 64 64 64 64 64 64 64 64 64 64 64 64 64 64 64 64 64 64 64 64 65 65 65 64 64 64 64 64 65 65 65 65 65 65 65 66 66 66 66 67 67 67 67 67 66 66 66 66 66 66 66 66 66 67 67 67 67 68 69 69 69 70 71 71
55 55 56 57 58 59 60 61 61 62 62 63 63 63 63 63 63 63 63 63 63 63 63 63 63 63 63 63 63 63 62 62 63 62 62 62 62 61 61 62 62 62 62 62 61 62 62 62 62 62 63 63 63 63 63 63 63 63 63 64 64 64 64 64 64 64 63 63 63 63 63 64 64 64 64 64 64 64 65 66 66 66 67 68 68
55 56 57 58 59 59 60 61 62 62 62 62 62 62 62 63 63 63 63 63 63 63 63 62 62 62 62 62 62 62 61 61 61 61 61 60 60 59 59 59 59 59 59 59 59 58 58 58 59 59 59 59 59 60 60 60 60 60 61 61 61 61 61 61 61 61 61 61 61 61 61 62 62 63 63 63 64 64 64 65 65 65 65 66 66
56 57 57 58 59 59 60 61 61 62 62 62 62 62 62 62 62 62 62 62 62 62 61 61 61 61 61 61 60 60 60 60 60 60 59 59 58 58 57 57 57 57 56 56 55 55 55 55 55 55 55 54 54 55 55 56 57 58 58 57 57 56 57 57 57 58 58 58 58 59 60 60 61 62 62 63 63 63 63 63 64 63 63 64 64
56 57 57 58 59 59 60 61 61 62 62 62 62 62 62 62 62 62 61 61 61 61 60 60 60 60 59 59 59 59 59 58 58 58 57 56 56 55 55 55 54 54 53 52 52 52 51 51 51 51 50 50 50 50 50 51 51 52 52 52 52 52 53 53 53 54 54 55 55 56 57 58 58 59 60 60 60 61 61 61 61 61 61 62 62
56 57 58 58 59 60 60 61 61 62 62 62 62 62 61 61 61 61 60 60 60 60 60 60 60 59 59 58 58 57 56 56 55 55 54 54 53 53 52 52 52 51 51 50 50 49 48 48 47 47 46 46 45 46 46 46 46 46 46 47 48 48 49 49 49 50 51 52 52 53 54 54 55 55 56 56 57 57 58 58 58 58 59 59 59
57 57 58 59 59 60 60 61 61 61 61 61 61 61 60 60 60 59 59 60 60 60 60 59 59 58 57 56 55 55 54 54 53 53 52 51 51 50 50 50 49 49 48 48 47 46 45 45 44 44 44 44 43 43 43 42 42 42 43 43 44 45 45 46 47 48 49 49 50 50 51 51 52 52 52 53 53 54 54 55 55 55 55 56 56
57 58 59 59 59 60 60 60 60 60 60 60 60 60 59 59 59 59 59 59 59 59 58 57 56 55 54 54 53 53 52 52 51 51 50 50 49 49 49 48 48 47 46 46 44 43 43 42 41 42 42 41 41 41 41 40 40 40 41 41 42 43 43 44 45 46 46 47 47 48 48 49 49 49 49 50 50 50 50 51 52 52 53 53 53
58 58 58 58 59 59 59 59 59 59 59 59 59 58 58 58 58 57 57 57 57 56 55 54 53 53 52 51 51 51 50 50 49 49 49 49 48 48 48 48 47 46 45 45 43 42 41 40 39 39 39 38 39 39 38 38 39 39 40 40 41 41 42 42 43 43 44 44 44 45 45 45 45 46 46 46 46 46 47 48 49 49 50 51 51
57 57 57 57 58 58 58 58 58 57 57 57 56 56 56 55 55 54 54 54 54 53 52 51 51 50 50 50 49 49 48 48 48 48 48 48 47 47 47 47 46 46 45 44 43 42 41 40 39 38 37 37 38 38 38 37 37 38 38 38 39 39 39 40 40 40 41 41 41 41 41 41 41 42 42 42 43 43 44 45 45 46 47 47 48
55 55 56 56 57 57 57 56 55 55 54 54 53 53 53 52 52 51 51 51 50 50 50 49 49 49 49 49 48 48 47 46 46 46 46 46 46 46 46 45 45 45 44 43 42 41 41 40 40 38 37 37 38 38 38 37 37 37 37 37 37 37 37 37 38 38 38 38 38 38 38 38 38 38 39 39 40 40 41 41 42 43 43 44 44
54 54 55 55 55 55 54 53 52 51 51 50 50 49 49 49 49 49 49 48 48 48 48 48 47 47 47 47 47 46 45 45 44 44 44 44 43 43 43 43 43 43 43 42 42 41 40 39 39 38 37 37 37 37 37 36 36 36 36 35 35 35 35 36 36 36 35 35 35 35 35 35 36 36 37 37 37 38 38 39 39 39 40 40 40
53 53 53 53 53 52 51 50 49 48 47 47 47 47 47 47 48 47 47 47 47 47 46 46 46 46 46 45 45 44 43 43 42 41 41 41 40 41 41 41 41 41 41 40 40 39 39 38 37 36 36 36 35 35 35 35 35 35 35 34 34 34 34 34 34 33 33 33 33 34 34 34 34 35 35 35 36 36 36 36 36 36 36 37 37
52 51 51 50 49 48 47 46 46 45 44 44 45 46 46 46 46 46 46 46 46 45 45 45 44 44 44 43 42 42 41 40 39 38 38 38 38 38 39 39 39 38 38 38 38 38 37 36 35 35 35 34 34 34 34 34 34 34 34 33 33 33 33 33 32 32 32 32 32 33 33 33 34 34 34 34 34 34 33 33 33 33 33 34 34
49 48 47 46 45 44 44 43 43 43 43 43 44 44 44 44 44 44 44 44 44 44 43 43 42 41 41 40 39 39 38 37 37 37 37 37 37 37 36 36 36 36 36 36 36 36 35 34 34 33 33 33 33 33 33 33 33 33 33 32 32 32 32 32 32 31 32 31 32 32 32 32 33 33 32 32 32 31 31 31 31 31 31 31 32
45 45 44 43 42 42 41 41 41 41 41 42 42 42 43 43 43 43 42 42 42 41 40 40 39 38 37 37 36 36 36 35 35 35 35 35 35 34 34 35 35 34 35 34 33 32 31 31 31 31 31 31 31 31 31 31 31 32 32 32 31 31 31 31 31 31 31 31 31 31 31 31 31 31 31 30 30 29 29 29 29 29 29 30 30
42 41 41 40 40 39 39 39 39 39 40 41 41 41 41 41 41 41 40 39 38 38 37 36 36 35 34 34 33 33 33 33 33 32 32 32 32 32 32 33 33 33 32 31 30 29 29 29 29 29 28 28 28 29 29 29 30 30 31 30 30 30 30 30 30 29 29 29 29 30 30 30 29 29 28 28 27 27 27 27 27 27 27 27 28
40 39 38 38 38 38 37 37 38 38 39 39 39 39 39 39 38 37 37 36 35 34 34 33 33 32 32 31 30 30 29 29 29 29 29 29 30 29 29 29 30 30 29 28 27 27 27 27 27 27 26 26 27 27 27 28 28 28 28 28 28 28 28 28 28 28 28 28 28 28 27 27 27 26 26 26 26 26 26 26 25 25 26 26 26
37 37 36 36 36 36 36 36 36 36 37 37 37 37 37 36 35 34 33 33 32 31 30 30 29 29 28 28 27 26 26 26 26 26 26 26 26 26 25 25 24 24 24 24 24 24 24 24 24 25 25 25 25 26 26 26 26 26 26 26 26 26 26 26 26 26 26 26 26 25 25 25 24 24 24 24 24 24 24 24 24 24 24 24 23
35 35 34 34 34 34 34 34 34 35 35 35 35 35 34 33 32 31 30 29 29 28 27 27 26 26 25 24 24 24 24 23 23 23 23 23 22 22 22 21 20 20 20 20 21 21 22 22 22 23 23 23 24 24 24 24 24 25 24 24 24 25 24 24 24 24 24 24 23 23 23 23 22 22 22 22 22 22 22 22 22 22 22 22 21
33 32 32 32 32 32 32 32 33 33 33 33 33 32 31 30 29 28 28 27 26 26 25 24 23 23 22 22 21 21 21 21 20 20 20 19 19 19 18 18 18 18 18 18 18 19 19 20 20 21 21 22 22 22 22 23 23 23 23 23 23 23 23 22 22 22 22 21 21 21 21 21 20 20 20 21 21 21 21 21 21 20 20 20 20
31 30 30 30 30 30 30 31 31 31 31 30 30 30 29 28 27 26 26 25 24 23 23 22 21 20 20 19 19 19 18 18 17 17 17 17 16 16 15 15 15 15 15 15 16 16 17 18 18 19 19 20 20 20 21 21 21 21 21 21 21 21 21 20 20 20 20 20 20 20 19 19 19 19 19 20 20 19 19 19 19 19 19 18 18
29 28 28 29 28 29 29 29 29 29 29 29 29 28 28 27 26 25 24 23 23 22 21 20 19 19 18 18 17 17 16 16 15 15 14 14 14 13 13 13 13 13 14 14 14 15 15 16 17 17 18 18 18 19 19 19 19 19 19 19 19 19 19 19 19 18 18 18 18 18 18 18 18 18 18 18 18 18 18 18 18 18 17 17 17
27 27 27 27 27 27 27 27 28 28 28 27 27 27 26 26 25 24 23 22 22 21 20 19 18 18 17 17 16 16 15 14 14 13 12 12 12 11 11 11 11 12 12 12 13 13 14 15 15 16 16 16 16 17 17 17 17 17 17 17 17 17 17 17 17 17 17 17 16 16 17 17 17 17 17 17 17 17 17 17 16 16 16 16 16
26 26 26 26 26 26 26 26 26 27 27 26 26 26 25 25 24 23 23 22 21 20 19 19 18 17 17 16 16 15 14 14 13 12 12 11 10 10 9 9 9 10 10 11 11 12 12 13 13 13 14 14 14 14 14 14 14 14 14 15 15 15 15 15 15 15 15 15 15 15 15 16 16 16 16 16 16 16 16 16 15 15 15 15 15
25 25 25 25 25 25 25 25 25 25 26 26 25 25 25 24 23 23 22 22 21 20 19 19 18 17 17 16 15 15 14 13 13 12 12 11 10 9 9 8 8 8 8 9 9 9 10 10 10 11 11 11 11 11 11 11 12 12 13 13 13 13 13 13 14 14 14 14 15 15 15 15 15 15 15 15 15 15 15 15 15 14 14 14 14
24 24 24 24 24 24 24 24 25 25 25 25 24 24 24 23 23 23 22 21 21 20 20 19 18 18 17 17 16 15 14 13 13 12 11 11 10 9 9 8 7 7 7 7 7 7 8 8 8 8 8 8 8 9 9 9 10 10 11 11 11 12 12 12 13 13 13 14 14 14 14 15 15 15 15 15 14 14 14 14 14 14 14 14 14
24 24 24 24 24 24 24 24 24 24 24 24 24 24 23 23 23 22 22 22 21 21 20 20 19 19 18 18 17 16 15 14 13 13 12 12 11 10 10 9 8 8 7 7 7 6 6 6 6 6 6 6 6 7 7 8 8 9 9 10 10 11 11 12 12 12 13 13 13 14 14 14 14 14 14 14 14 14 13 13 13 13 13 13 13
24 24 24 24 24 24 24 24 24 24 24 24 24 23 23 23 23 22 22 22 21 21 20 20 20 19 19 18 18 17 16 15 15 14 14 13 12 12 11 10 10 9 8 7 7 7 6 6 6 6 6 6 6 6 7 7 8 8 9 9 10 10 10 11 11 11 12 12 13 13 13 14 14 14 14 13 13 13 13 13 13 13 13 13 13
24 24 24 24 24 24 24 24 24 24 24 24 24 23 23 23 23 23 22 22 22 21 21 21 20 20 20 19 19 18 18 17 16 16 15 14 14 13 12 12 11 10 9 9 8 7 7 7 7 6 6 6 6 7 7 7 7 8 8 9 9 9 10 10 10 10 11 11 12 12 12 13 13 13 13 12 12 12 12 13 13 13 13 13 13
24 24 24 24 24 24 24 24 24 24 24 24 24 24 24 24 23 23 23 23 22 22 22 21 21 21 20 20 20 19 19 18 17 17 16 16 15 14 14 13 12 12 11 10 9 9 8 8 8 8 7 7 7 7 7 7 7 7 7 8 8 9 9 9 9 10 10 10 11 11 11 11 11 11 11 11 11 11 12 12 12 12 13 13 13
24 24 24 24 24 24 24 24 24 24 24 24 24 24 24 24 24 23 23 23 23 23 22 22 22 21 21 21 20 20 19 19 18 18 17 16 16 15 15 14 13 13 12 11 11 10 10 9 9 9 8 8 8 7 7 7 7 7 7 7 7 8 8 8 9 9 9 9 9 9 10 10 10 10 10 10 10 10 11 11 12 12 12 12 13
23 23 23 23 24 24 24 24 24 24 24 24 24 24 24 24 24 23 23 23 23 23 22 22 22 22 21 21 20 20 20 19 19 18 18 17 17 16 15 15 14 14 13 13 12 11 11 10 10 10 9 9 9 8 8 8 7 7 7 7 7 8 8 8 8 8 8 8 8 8 9 9 9 9 9 9 10 10 10 11 11 11 12 12 12
23 23 23 23 23 23 24 24 24 24 24 24 23 23 23 23 23 23 23 23 23 23 22 22 22 22 21 21 21 20 20 19 19 18 18 18 17 17 16 16 15 15 14 14 13 13 12 12 11 11 10 10 10 9 9 9 8 8 8 8 8 8 8 8 8 8 8 8 8 8 8 9 9 9 9 9 9 10 10 10 11 11 11 11 11
22 22 22 23 23 23 23 23 23 23 23 23 23 23 23 23 23 23 23 23 23 23 22 22 22 22 21 21 21 20 20 20 19 19 19 18 18 17 17 16 16 15 15 14 14 14 13 13 12 12 11 11 11 10 10 10 9 9 9 8 8 8 8 8 8 8 8 8 8 8 8 8 8 8 9 9 9 9 10 10 10 10 11 11 11
21 22 22 22 22 22 23 23 23 23 23 23 23 23 23 23 23 23 23 23 23 23 22 22 22 22 21 21 21 21 20 20 20 19 19 19 18 18 18 17 17 16 16 15 15 15 14 14 13 13 12 12 11 11 11 10 10 10 9 9 9 9 9 9 8 8 8 8 8 8 7 7 8 8 8 8 8 8 9 9 9 9 9 9 9
21 21 21 21 22 22 22 22 22 22 22 22 22 22 22 22 23 23 23 23 23 22 22 22 22 22 21 21 21 21 20 20 20 20 20 19 19 19 19 18 18 17 17 16 16 16 15 15 14 14 13 13 12 12 12 11 11 11 10 10 10 10 10 9 9 9 8 8 8 7 7 7 7 7 7 7 7 7 7 7 7 7 7 7 7
Wind_Direction
287 286 286 285 285 285 285 285 284 284 284 284 284 284 283 283 282 282 282 282 282 282 281 281 281 280 280 279 278 278 277 277 276 275 274 273 273 272 272 272 271 271 271 271 270 270 270 270 270 270 270 270 269 269 269 269 268 268 268 268 267 267 268 268 268 268 268 267 267 268 268 268 267 267 267 267 267 267 268 268 268 268 268 268 268
287 286 286 286 285 285 285 285 285 284 284 284 285 284 284 283 283 283 282 282 282 282 282 281 281 281 280 279 279 278 278 277 277 276 275 275 274 273 273 272 272 272 272 272 272 271 271 271 271 270 270 270 269 269 269 269 269 268 268 268 268 268 268 268 269 269 269 267 267 268 268 268 268 268 268 268 268 268 268 268 268 268 268 268 269
287 286 286 286 285 285 285 284 284 284 284 284 285 284 284 284 284 283 283 283 283 283 282 282 281 281 280 279 279 278 278 277 277 276 276 276 275 274 274 273 273 273 272 272 272 272 272 272 271 271 271 270 270 270 269 269 269 269 268 268 268 268 268 268 269 269 269 268 267 268 268 268 268 268 268 268 268 269 269 269 269 269 269 269 269
288 287 287 287 286 286 285 285 284 284 284 284 284 284 283 283 283 283 283 283 283 283 283 282 282 281 280 280 279 279 278 277 277 276 276 276 276 275 275 274 274 274 273 273 273 272 272 272 272 272 271 271 271 270 270 270 269 269 269 268 268 268 268 268 268 269 269 269 268 268 268 268 269 269 269 269 269 269 269 269 269 269 269 269 269
289 289 288 288 288 287 286 286 285 285 284 284 284 283 283 283 283 283 282 282 282 282 282 282 281 281 280 280 279 278 278 277 277 276 276 276 275 275 275 274 274 274 274 273 273 273 272 272 272 272 272 271 271 271 270 270 270 269 269 269 269 268 268 268 268 269 269 269 269 268 268 269 269 269 269 270 270 270 269 270 270 270 270 270 270
290 289 289 289 289 288 288 287 286 285 285 284 284 283 283 283 283 283 283 283 282 282 282 282 281 280 280 279 279 278 278 277 277 276 276 276 275 275 274 274 274 274 273 273 273 273 272 272 272 272 271 271 271 271 271 270 270 270 269 269 269 269 269 268 268 268 268 269 269 269 268 269 269 269 269 270 270 270 270 270 270 270 270 270 270
290 290 290 290 289 289 288 288 286 286 285 285 284 284 284 284 284 284 284 283 283 283 283 282 282 281 280 279 279 278 278 278 277 277 277 276 276 275 275 274 274 273 273 273 273 272 272 272 272 271 271 271 271 271 270 270 270 270 269 269 269 269 269 268 268 268 268 268 269 269 269 269 269 269 269 270 270 270 270 270 270 270 270 270 270
291 291 290 290 290 289 288 287 286 286 285 285 285 285 285 284 284 284 284 284 284 283 283 283 282 282 281 280 280 279 279 278 278 277 277 277 276 276 275 274 274 273 273 273 273 272 272 272 272 271 271 271 271 270 270 270 269 269 269 269 269 268 268 268 268 267 268 268 268 269 269 269 269 269 269 270 270 270 270 271 271 270 270 270 270
291 291 291 291 290 289 288 287 287 286 286 286 286 285 285 285 285 285 285 285 284 284 284 283 283 282 282 281 280 280 279 279 278 278 278 277 277 276 276 275 275 274 273 273 273 272 272 272 271 271 271 271 270 270 270 269 269 269 268 268 268 267 267 267 267 267 267 267 268 268 268 268 268 269 269 269 270 270 270 271 271 271 270 270 270
292 292 292 291 290 290 289 288 288 287 287 287 287 287 286 286 286 286 286 285 285 285 285 284 284 283 282 282 281 280 280 279 279 279 278 278 277 277 276 275 275 274 274 273 273 272 272 271 271 271 271 271 270 270 269 269 268 268 268 268 267 267 266 266 266 266 266 267 267 267 267 267 268 268 268 269 269 270 271 271 271 271 271 271 270
293 293 292 291 290 290 290 289 289 288 288 288 288 288 287 287 287 286 286 286 286 285 285 285 284 284 283 282 282 281 280 280 280 280 279 278 278 277 276 276 275 275 274 274 273 273 272 272 271 271 270 270 270 270 269 269 268 268 268 268 267 267 267 266 266 267 267 267 267 267 268 268 268 268 269 269 270 270 271 271 271 271 271 271 271
293 293 292 291 291 291 290 290 290 290 289 289 289 288 288 288 287 287 287 286 286 286 286 285 285 284 283 283 282 282 281 281 281 280 279 279 278 278 277 276 275 274 274 274 274 273 273 272 272 271 270 270 270 269 269 269 268 268 268 268 267 267 267 267 267 267 267 267 268 268 268 269 269 269 270 270 271 271 271 271 271 271 271 271 271
294 294 293 292 292 292 291 291 291 291 290 290 289 289 289 288 288 287 287 287 287 286 286 285 285 284 284 283 283 282 282 282 281 281 280 279 279 278 277 276 275 275 275 274 274 273 273 273 272 272 271 271 271 270 269 269 268 268 268 267 267 267 267 267 268 268 267 268 268 268 268 269 269 270 270 270 271 271 271 271 271 271 271 271 271
295 294 293 293 293 292 292 292 292 292 291 291 290 290 289 289 288 288 288 287 287 287 287 286 286 285 285 284 284 283 283 283 282 281 280 280 279 278 277 277 276 275 275 274 274 274 273 273 273 272 272 272 271 271 270 270 269 268 268 267 267 267 267 267 267 268 268 268 268 268 268 269 269 270 270 270 270 270 270 270 271 271 271 271 271
295 294 294 294 293 293 293 293 293 293 292 292 291 291 290 290 289 289 288 288 288 288 287 287 286 286 285 285 284 283 283 283 283 282 281 280 280 279 278 277 277 276 276 275 275 274 274 273 273 273 272 272 272 272 271 270 270 269 268 267 267 266 266 266 267 267 267 267 268 268 268 269 269 270 270 270 270 270 271 271 271 272 272 272 272
295 295 295 294 294 294 294 294 294 293 293 293 292 292 291 291 290 290 289 289 288 288 287 287 286 286 285 285 284 284 283 283 283 282 282 281 280 279 279 278 277 277 276 276 276 275 275 275 274 274 273 273 272 272 271 270 270 269 268 267 267 266 266 266 266 266 267 267 268 268 269 269 269 270 270 270 270 271 271 271 272 272 273 273 272
296 296 295 295 295 295 295 294 294 294 294 294 293 293 292 291 291 290 290 289 289 288 288 287 286 286 286 285 285 284 283 283 283 283 282 282 281 280 279 279 278 278 277 277 276 276 275 275 275 275 274 273 273 273 272 271 269 269 268 267 266 266 265 265 266 266 267 267 268 268 269 269 270 270 271 271 271 272 273 272 272 273 273 273 273
296 296 296 296 296 296 295 295 295 295 295 294 294 293 292 292 291 290 290 289 289 288 288 287 287 286 286 285 285 284 284 284 284 283 282 281 281 280 280 279 278 278 278 277 277 276 276 276 276 275 275 274 274 273 272 271 270 268 267 266 266 266 266 266 266 267 267 267 268 269 269 270 271 271 271 271 272 272 273 273 273 273 273 272 273
297 297 297 297 297 296 296 296 296 296 295 294 294 293 293 292 291 291 290 289 289 288 288 288 287 286 286 286 285 285 284 284 283 283 282 281 281 280 279 279 278 278 277 277 277 277 276 276 276 275 275 275 274 273 273 272 270 268 268 266 266 267 266 266 267 268 268 268 269 269 270 271 271 271 271 272 272 272 272 273 273 272 272 272 272
299 298 298 298 297 297 297 297 296 296 295 295 294 294 293 292 292 291 290 290 289 289 289 288 288 287 286 286 285 285 284 283 283 283 282 281 280 280 280 279 279 278 278 277 277 277 276 276 276 275 275 275 274 273 273 272 270 269 269 268 268 268 268 268 269 269 269 270 270 271 271 271 272 272 272 272 272 272 272 272 272 272 272 271 272
299 299 299 298 298 298 298 297 297 296 296 295 295 294 293 293 292 291 291 290 290 289 289 289 288 287 286 286 285 284 284 283 283 282 281 280 280 280 280 279 279 279 279 278 277 277 276 276 275 275 275 275 274 273 272 272 271 270 270 269 269 269 269 270 271 271 271 271 271 272 272 272 272 272 272 272 272 272 272 272 272 271 271 271 271
300 299 299 299 299 299 299 298 298 297 296 296 295 295 294 293 293 292 291 291 290 290 289 289 288 287 286 286 285 285 284 283 282 282 281 280 279 279 279 279 278 279 279 278 278 277 277 276 275 274 274 274 273 272 272 273 273 272 271 271 271 271 272 272 272 272 273 273 273 273 273 273 273 273 273 273 273 272 272 272 272 271 271 271 271
301 300 300 300 300 300 299 299 299 298 297 297 296 295 294 294 293 293 292 291 291 290 290 289 288 287 287 286 286 285 284 284 283 282 281 280 279 278 278 278 278 277 277 277 277 277 276 275 274 274 274 273 272 272 273 273 273 273 273 273 274 274 274 274 274 274 274 274 274 274 274 274 274 274 273 273 273 273 273 272 272 271 271 271 270
302 302 301 301 301 301 300 300 300 299 298 298 297 296 296 295 294 294 293 293 292 291 290 290 289 288 288 287 286 286 285 284 283 282 281 280 279 278 278 278 277 276 276 275 275 275 274 273 273 273 273 272 271 272 273 274 274 274 275 275 275 275 275 275 275 275 276 276 275 275 274 274 274 274 274 274 274 274 273 273 273 272 272 271 271
303 303 303 302 302 302 302 301 301 300 300 299 298 298 297 297 296 295 294 294 293 292 291 290 290 289 288 287 286 286 285 284 283 282 281 280 279 278 278 277 277 276 275 274 274 274 274 273 272 272 271 271 271 271 272 273 274 275 275 275 275 276 276 276 276 277 277 276 276 275 275 275 274 274 275 275 275 275 275 275 274 274 273 272 272
304 304 304 304 304 304 303 303 302 302 301 301 300 299 299 298 298 297 296 295 294 293 292 291 291 290 289 288 287 286 285 285 284 282 282 280 279 279 277 276 276 275 275 274 273 273 273 273 271 270 270 270 270 270 271 272 273 274 275 275 275 276 277 277 277 277 277 276 276 276 275 275 275 276 276 276 276 276 277 276 276 275 274 274 273
306 306 306 305 305 305 304 304 304 303 303 303 302 302 301 300 299 298 297 296 295 294 293 293 292 291 289 288 287 287 286 285 284 283 282 281 280 279 277 276 276 275 274 273 272 271 271 271 270 270 270 270 270 270 271 271 272 273 274 274 275 276 276 277 276 277 277 276 276 276 276 276 276 277 277 277 277 277 277 277 277 276 275 275 275
308 307 307 307 307 307 306 306 306 305 305 305 304 304 303 302 301 300 299 298 297 296 295 294 293 291 290 289 288 287 286 285 284 283 282 281 280 279 278 277 276 275 274 273 271 270 270 270 270 270 270 270 270 270 271 271 272 272 273 274 275 275 276 276 276 276 276 276 276 277 277 277 277 277 278 278 278 278 277 277 277 276 276 276 275
309 309 309 309 309 308 308 308 307 307 307 307 307 306 305 304 303 301 300 299 298 297 296 295 293 292 291 290 289 288 287 285 284 284 283 282 281 280 279 278 277 275 274 274 273 271 269 269 269 269 269 269 270 270 271 271 272 272 273 274 275 275 276 276 277 277 277 277 277 277 278 278 278 278 278 278 278 278 278 278 277 277 277 277 276
312 312 311 311 311 310 310 310 309 309 309 309 309 309 308 307 305 304 303 302 300 299 298 296 295 294 293 292 290 289 287 286 285 285 283 282 282 281 279 278 277 275 274 274 272 269 267 267 267 268 268 269 269 270 271 272 272 273 274 275 275 276 276 276 277 277 278 278 278 278 278 279 279 279 278 278 278 278 278 278 278 278 278 278 278
314 314 314 314 313 313 312 312 312 312 312 312 312 311 311 310 309 307 306 305 303 302 301 299 298 297 295 294 292 291 289 288 287 286 285 284 283 282 281 280 277 273 273 272 269 267 267 267 267 268 268 269 269 270 271 272 273 274 274 275 275 276 276 277 277 278 278 279 279 279 279 278 278 278 277 277 278 278 278 279 279 279 280 280 279
317 317 316 316 316 315 315 315 315 315 315 315 315 315 314 314 313 311 310 309 307 305 304 303 301 300 298 297 295 293 291 290 289 288 287 286 285 284 284 283 278 273 271 269 267 267 268 268 268 269 270 270 270 271 272 272 273 274 275 275 276 276 276 277 277 278 278 279 279 279 278 278 278 278 277 277 277 278 279 279 280 281 281 281 280
320 320 319 319 318 318 318 318 319 319 319 319 319 319 319 318 317 316 314 313 312 310 309 307 305 304 302 300 298 296 295 293 292 290 289 288 287 286 287 285 280 275 271 269 269 269 269 269 270 270 270 271 271 271 272 273 274 274 275 275 275 276 276 277 277 278 278 279 278 278 277 277 278 278 277 277 277 278 279 280 280 281 282 281 281
323 322 322 322 321 322 322 322 323 323 323 323 323 324 324 323 322 321 319 318 317 316 314 313 312 310 307 305 303 301 299 296 295 294 292 290 289 289 287 284 281 278 274 272 271 271 271 271 271 271 271 271 271 272 273 273 274 275 275 275 275 276 276 277 278 278 278 278 277 277 277 277 277 277 277 277 278 278 279 279 280 281 282 282 281
325 325 326 326 326 326 327 327 327 327 328 328 329 329 329 328 327 326 325 324 322 321 319 319 318 316 314 311 309 306 304 301 299 298 297 294 292 291 288 284 282 280 276 274 273 272 271 271 271 271 271 272 272 272 273 274 274 275 275 275 276 277 277 278 278 278 277 276 276 276 277 277 277 277 277 278 278 279 279 279 281 281 282 282 282
329 329 330 330 330 331 331 331 332 333 333 333 334 334 334 334 333 332 331 330 328 327 325 324 324 322 321 319 317 314 310 308 306 304 302 299 296 294 291 288 286 283 280 278 275 273 272 272 272 273 273 273 273 273 274 274 275 275 275 275 276 277 278 278 278 277 277 276 277 277 277 277 277 278 278 279 278 278 278 279 281 282 282 282 282
333 333 334 334 335 335 336 337 337 338 339 339 340 340 340 340 340 339 338 336 336 335 334 333 332 331 329 328 327 324 319 316 314 312 308 304 302 298 295 292 289 287 284 281 279 277 276 275 275 275 275 275 275 275 275 275 275 275 275 275 276 276 277 277 277 277 277 277 277 277 277 277 278 279 280 280 279 279 279 280 280 281 282 282 282
337 337 338 338 339 340 341 342 343 344 345 345 346 346 347 347 347 347 346 345 345 344 343 342 342 341 339 338 337 334 330 328 326 323 320 315 310 305 301 297 293 290 287 285 283 281 279 278 278 278 278 277 277 277 277 277 276 275 275 275 276 276 277 277 277 277 277 277 277 276 276 277 278 279 280 280 280 280 280 280 280 281 281 281 281
342 342 342 343 344 345 346 347 348 349 350 351 352 352 353 353 354 354 354 354 354 354 353 353 352 351 350 349 347 345 343 342 341 338 335 331 327 322 316 310 304 299 295 290 288 286 284 282 282 281 280 280 280 279 278 278 277 276 276 277 278 278 278 278 278 277 277 276 276 276 276 277 278 280 281 281 280 280 280 279 279 279 280 281 281
347 347 347 348 350 350 351 352 353 354 355 356 357 358 359 360 0 1 1 1 1 1 2 1 1 1 1 0 359 357 355 354 353 352 350 348 346 342 338 331 323 315 308 303 299 296 293 290 289 287 286 285 284 282 281 280 279 279 279 279 280 280 280 279 279 278 278 277 277 277 277 277 279 281 282 281 280 279 278 277 277 278 278 280 281
353 353 353 354 355 355 355 356 357 358 359 0 1 3 4 5 6 6 7 7 7 8 8 8 9 9 10 8 7 7 6 5 4 4 3 1 359 356 354 350 343 336 329 323 318 313 309 305 303 300 297 295 292 289 287 285 284 284 284 283 283 283 282 282 281 280 279 278 277 277 277 278 280 281 281 281 280 278 276 275 275 276 277 279 280
359 359 359 360 360 360 0 1 2 3 4 5 6 7 7 8 10 11 11 12 13 13 14 14 15 16 16 15 14 15 16 16 15 14 13 13 11 10 8 6 4 360 355 350 345 339 333 329 325 320 315 311 305 300 297 294 292 291 290 288 287 286 285 284 283 281 280 279 278 278 279 279 280 280 280 281 280 278 276 275 275 276 277 278 279
5 5 6 6 6 6 6 6 7 7 8 9 10 11 11 12 13 14 15 16 17 18 18 18 19 21 22 22 22 23 24 25 24 23 23 23 22 22 21 21 20 18 14 10 6 360 354 351 346 340 333 325 318 311 307 304 301 298 296 294 292 291 289 288 287 286 284 283 282 281 281 281 281 280 280 280 279 277 275 275 275 276 277 277 278
10 11 11 11 11 12 12 12 12 12 13 14 14 15 16 17 18 19 19 20 21 22 23 23 24 25 26 27 28 29 29 30 29 29 29 28 28 28 28 27 27 25 23 20 15 9 5 1 357 351 345 336 328 321 317 313 310 307 305 303 300 298 297 295 294 292 290 289 287 287 285 284 283 281 280 279 278 276 275 275 275 276 277 278 278
13 14 14 15 16 16 16 17 17 18 18 19 20 21 22 22 23 24 24 25 25 26 27 28 28 29 29 30 31 31 31 31 31 31 31 30 30 30 30 29 28 27 26 23 18 14 10 7 3 359 355 350 343 336 331 326 321 317 313 311 309 307 306 305 303 301 299 297 294 293 291 288 286 284 283 281 279 277 276 276 276 276 277 278 279
14 15 16 17 18 18 19 20 20 21 22 22 23 23 24 25 26 27 27 28 29 29 29 30 31 31 31 31 31 32 32 32 32 32 32 32 32 31 31 30 29 27 26 23 20 17 14 11 9 6 4 1 357 352 347 341 336 330 324 320 317 316 315 313 311 309 308 305 302 300 297 294 292 289 286 284 282 279 278 278 278 278 278 279 280
14 15 16 17 18 18 19 20 20 21 22 23 24 24 25 26 27 28 29 29 30 30 30 31 31 31 32 32 32 32 33 33 32 32 32 32 32 31 31 30 30 28 27 25 23 21 19 17 15 13 10 7 4 1 357 352 347 342 336 331 326 322 320 318 315 313 312 309 307 305 303 299 296 294 291 287 285 283 282 281 281 282 282 283 283
13 14 16 16 17 17 18 19 20 20 21 23 24 24 25 26 27 28 29 29 29 29 30 30 30 31 31 31 32 32 32 32 32 32 32 32 32 32 31 31 30 29 29 28 26 24 22 20 18 15 13 10 7 5 1 358 353 349 344 339 334 329 325 322 319 317 314 312 309 307 305 302 299 297 294 291 289 288 286 285 285 285 285 285 284
13 14 15 16 17 18 18 19 20 21 23 24 25 26 26 27 27 28 28 29 29 29 29 29 30 30 30 30 30 31 31 31 31 32 32 32 32 32 32 31 30 29 29 28 26 24 23 21 19 17 15 12 10 7 4 1 358 354 349 345 340 334 329 326 324 322 320 317 314 313 310 307 304 301 299 296 293 291 290 288 288 288 287 286 285
13 14 16 16 18 19 20 21 22 23 24 25 26 26 27 27 27 28 28 28 28 28 29 29 29 29 29 29 30 30 31 31 32 32 32 32 32 31 31 31 30 29 29 28 26 24 23 21 20 18 16 14 11 9 6 3 360 356 353 348 344 339 335 332 330 327 324 321 319 318 316 313 310 308 305 303 300 297 294 292 291 290 289 287 287
14 15 16 17 19 20 21 22 23 24 25 25 25 26 26 26 26 27 27 27 27 27 27 28 28 28 29 30 30 31 31 31 31 31 31 31 31 31 31 30 30 30 29 28 27 25 24 23 21 20 18 16 14 12 9 6 3 360 356 352 348 345 343 339 335 332 329 326 326 326 325 323 320 318 316 314 311 307 303 300 298 296 295 293 292